Home   Weather   Lexington-Fayette   Past weeks

Flag for USA Past Weather in Lexington-Fayette, Kentucky, USA — Yesterday and Last 2 Weeks

Now
58 °F

Clear.


Feels Like: 55 °F
Forecast: 56 / 74 °F
Wind: 12 mph from South

Location: Blue Grass Airport

Current Time: Feb 24, 2017 at 7:49:53 am

Latest Report: Feb 24, 2017 at 6:54 am


Visibility: 10 mi

Pressure: 29.73 "Hg

Humidity: 75%

Dew Point: 50 °F

Location of Lexington-FayetteLocation

Past Weather in Lexington-Fayette — Graph

°F

Lexington-Fayette Temperature Yesterday

Maximum temperature yesterday: 69 °F (at 3:54 pm)
Minimum temperature yesterday: 54 °F (at 4:54 am)
Average temperature yesterday: 61 °F

High & Low Weather Summary for the Past Weeks

 TemperatureHumidityPressure
High72 °F (Feb 21, 12:54 pm)97% (Feb 20, 2:56 am)30.43 "Hg (Feb 20, 2:56 am)
Low19 °F (Feb 9, 10:54 pm)20% (Feb 10, 1:54 pm)29.70 "Hg (Feb 15, 3:54 am)
Average50 °F62%30.00 "Hg
* Reported Feb 9 5:54 am — Feb 24 5:54 am, Lexington-Fayette, Weather by CustomWeather, © 2017

Note: Actual official high and low records may vary slightly from our data, if they occured in-between our weather recording intervals... More about our weather records

Advertising

Lexington-Fayette Weather History for the Previous 24 Hours

Scroll right to see more
 ConditionsComfort  
Time TempWeatherWind HumidityBarometerVisibility
5:54 am
Fri, Feb 24
59 °FClear.12 mph75%29.74 "Hg10 mi
4:54 am59 °FClear.10 mph75%29.74 "Hg10 mi
3:54 am60 °FClear.12 mph72%29.74 "Hg10 mi
2:54 am60 °FClear.12 mph75%29.74 "Hg10 mi
1:54 am60 °FClear.10 mph72%29.74 "Hg10 mi
12:54 am59 °FClear.8 mph75%29.74 "Hg10 mi
11:54 pm
Thu, Feb 23
60 °FClear.9 mph75%29.75 "Hg10 mi
10:54 pm60 °FPassing clouds.9 mph78%29.75 "Hg10 mi
9:54 pm63 °FOvercast.8 mph73%29.77 "Hg10 mi
8:54 pm63 °FPassing clouds.8 mph73%29.76 "Hg10 mi
7:54 pm64 °FPassing clouds.7 mph70%29.78 "Hg10 mi
6:54 pm65 °FPassing clouds.6 mph68%29.77 "Hg10 mi
5:54 pm67 °FPartly sunny.5 mph66%29.78 "Hg10 mi
4:54 pm69 °FOvercast.6 mph63%29.77 "Hg10 mi
3:54 pm69 °FOvercast.9 mph63%29.77 "Hg10 mi
2:54 pm67 °FMore clouds than sun.8 mph68%29.79 "Hg10 mi
2:30 pm67 °FMostly cloudy.8 mph68%29.81 "Hg10 mi
1:54 pm66 °FOvercast.7 mph70%29.80 "Hg10 mi
1:35 pm67 °FMostly cloudy.7 mph68%29.82 "Hg10 mi
12:54 pm66 °FOvercast.12 mph70%29.81 "Hg10 mi
11:54 am62 °FOvercast.10 mph78%29.84 "Hg10 mi
10:54 am60 °FOvercast.10 mph83%29.85 "Hg10 mi
9:54 am59 °FMostly cloudy.8 mph87%29.86 "Hg10 mi
8:54 am58 °FMostly cloudy.8 mph87%29.86 "Hg9 mi
8:26 am57 °FMostly cloudy.7 mph90%29.87 "Hg7 mi
7:54 am56 °FOvercast.8 mph90%29.85 "Hg7 mi
Weather by CustomWeather, © 2017

See weather overviewHow to use our weather pages